VIV313 MUHA-MMUN

Flight info

Callsign VIV313
Flight time 1h 5m
Altitude 38000
Route EPMAR4A MUPKI UB879 NOSAT NOSAT1B
Aircraft A21N/M-SDE2E3FGHIRWXY/LB1

Departure

Time 2026-05-03 22:14
Airport José Martí International Airport (MUHA)

Arrival

Time 2026-05-03 23:19
Airport Cancún International Airport (MMUN)
Time Latitude Longitude Altitude Speed Heading
2026-05-03 21:40 22.99598 -82.40659 217 ft 0 kts 348°
2026-05-03 22:01 22.99595 -82.40659 217 ft 2 kts 348°
2026-05-03 22:02 22.99581 -82.40655 216 ft 2 kts 347°
2026-05-03 22:02 22.99566 -82.40651 216 ft 2 kts 348°
2026-05-03 22:02 22.99554 -82.40648 216 ft 0 kts 348°
2026-05-03 22:02 22.99541 -82.40644 216 ft 2 kts 326°
2026-05-03 22:03 22.99530 -82.40632 216 ft 2 kts 300°
2026-05-03 22:03 22.99525 -82.40616 216 ft 2 kts 272°
2026-05-03 22:03 22.99527 -82.40600 216 ft 2 kts 246°
2026-05-03 22:03 22.99532 -82.40591 216 ft 1 kts 230°
2026-05-03 22:04 22.99535 -82.40588 216 ft 0 kts 233°
2026-05-03 22:06 22.99533 -82.40590 216 ft 1 kts 233°
2026-05-03 22:07 22.99523 -82.40604 216 ft 3 kts 233°
2026-05-03 22:07 22.99499 -82.40640 216 ft 8 kts 234°
2026-05-03 22:07 22.99462 -82.40698 216 ft 10 kts 236°
2026-05-03 22:07 22.99412 -82.40777 216 ft 14 kts 237°
2026-05-03 22:08 22.99328 -82.40824 215 ft 16 kts 158°
2026-05-03 22:08 22.99215 -82.40791 214 ft 18 kts 210°
2026-05-03 22:08 22.99131 -82.40904 214 ft 20 kts 235°
2026-05-03 22:08 22.99045 -82.41035 215 ft 21 kts 235°
2026-05-03 22:09 22.98953 -82.41171 215 ft 22 kts 234°
2026-05-03 22:09 22.98862 -82.41305 217 ft 21 kts 233°
2026-05-03 22:09 22.98797 -82.41405 217 ft 14 kts 237°
2026-05-03 22:10 22.98662 -82.41611 219 ft 19 kts 234°
2026-05-03 22:10 22.98578 -82.41737 220 ft 21 kts 234°
2026-05-03 22:10 22.98490 -82.41872 221 ft 22 kts 236°
2026-05-03 22:10 22.98396 -82.42012 221 ft 23 kts 234°
2026-05-03 22:11 22.98301 -82.42158 222 ft 24 kts 234°
2026-05-03 22:11 22.98199 -82.42310 222 ft 25 kts 234°
2026-05-03 22:11 22.98094 -82.42470 222 ft 26 kts 236°
2026-05-03 22:11 22.97981 -82.42563 221 ft 10 kts 166°
2026-05-03 22:12 22.97953 -82.42547 221 ft 0 kts 143°
2026-05-03 22:12 22.97949 -82.42545 221 ft 2 kts 142°
2026-05-03 22:12 22.97927 -82.42523 221 ft 6 kts 135°
2026-05-03 22:12 22.97900 -82.42474 221 ft 9 kts 106°
2026-05-03 22:13 22.97901 -82.42439 221 ft 3 kts 59°
2026-05-03 22:13 22.97904 -82.42435 221 ft 0 kts 55°
2026-05-03 22:13 22.97984 -82.42313 222 ft 54 kts 54°
2026-05-03 22:13 22.98361 -82.41777 221 ft 121 kts 60°
2026-05-03 22:14 22.98946 -82.40855 273 ft 167 kts 53°
2026-05-03 22:14 22.99624 -82.39803 783 ft 173 kts 54°
2026-05-03 22:14 23.00308 -82.38727 1401 ft 176 kts 54°
2026-05-03 22:14 23.01000 -82.37637 2022 ft 178 kts 54°
2026-05-03 22:15 23.01744 -82.36507 2460 ft 191 kts 54°
2026-05-03 22:15 23.02553 -82.35293 2836 ft 207 kts 55°
2026-05-03 22:15 23.03435 -82.33969 3213 ft 224 kts 55°
2026-05-03 22:15 23.04397 -82.32523 3519 ft 246 kts 55°
2026-05-03 22:16 23.05440 -82.30957 3946 ft 264 kts 55°
2026-05-03 22:16 23.06549 -82.29291 4449 ft 278 kts 55°
2026-05-03 22:16 23.07700 -82.27566 5159 ft 284 kts 55°
2026-05-03 22:16 23.08856 -82.25829 5934 ft 286 kts 55°
2026-05-03 22:17 23.10015 -82.24088 6628 ft 290 kts 55°
2026-05-03 22:17 23.11212 -82.22299 7336 ft 294 kts 54°
2026-05-03 22:17 23.12425 -82.20493 8022 ft 298 kts 54°
2026-05-03 22:17 23.13879 -82.18868 8674 ft 300 kts 31°
2026-05-03 22:18 23.15808 -82.18155 9351 ft 297 kts
2026-05-03 22:18 23.17834 -82.18463 10023 ft 293 kts 339°
2026-05-03 22:18 23.19744 -82.19249 10535 ft 301 kts 336°
2026-05-03 22:18 23.21760 -82.20109 10820 ft 317 kts 336°
2026-05-03 22:19 23.23877 -82.20996 11079 ft 332 kts 336°
2026-05-03 22:19 23.25926 -82.22243 11361 ft 341 kts 316°
2026-05-03 22:19 23.27368 -82.24271 11934 ft 338 kts 294°
2026-05-03 22:19 23.27985 -82.26694 12546 ft 336 kts 274°
2026-05-03 22:20 23.27746 -82.29189 13119 ft 337 kts 257°
2026-05-03 22:20 23.27148 -82.31715 13656 ft 340 kts 256°
2026-05-03 22:20 23.26546 -82.34237 14180 ft 344 kts 256°
2026-05-03 22:20 23.25957 -82.36719 14708 ft 345 kts 256°
2026-05-03 22:21 23.25357 -82.39265 15227 ft 347 kts 256°
2026-05-03 22:21 23.24755 -82.41827 15761 ft 349 kts 256°
2026-05-03 22:21 23.24155 -82.44391 16292 ft 350 kts 256°
2026-05-03 22:21 23.23557 -82.46944 16795 ft 352 kts 256°
2026-05-03 22:22 23.22953 -82.49530 17301 ft 353 kts 256°
2026-05-03 22:22 23.22353 -82.52093 17802 ft 354 kts 256°
2026-05-03 22:22 23.21746 -82.54682 18305 ft 354 kts 256°
2026-05-03 22:22 23.21134 -82.57296 18757 ft 356 kts 256°
2026-05-03 22:23 23.20524 -82.59896 19163 ft 359 kts 256°
2026-05-03 22:23 23.19911 -82.62513 19608 ft 360 kts 256°
2026-05-03 22:23 23.19287 -82.65171 20047 ft 361 kts 256°
2026-05-03 22:23 23.18671 -82.67804 20439 ft 363 kts 256°
2026-05-03 22:24 23.18050 -82.70460 20834 ft 365 kts 256°
2026-05-03 22:24 23.17419 -82.73152 21251 ft 366 kts 256°
2026-05-03 22:24 23.16786 -82.75857 21660 ft 367 kts 256°
2026-05-03 22:24 23.16157 -82.78528 22053 ft 369 kts 256°
2026-05-03 22:25 23.15523 -82.81218 22420 ft 370 kts 256°
2026-05-03 22:25 23.14879 -82.83953 22768 ft 373 kts 256°
2026-05-03 22:25 23.14235 -82.86684 22934 ft 380 kts 256°
2026-05-03 22:25 23.13575 -82.89480 23208 ft 384 kts 256°
2026-05-03 22:26 23.12906 -82.92316 23564 ft 385 kts 256°
2026-05-03 22:26 23.12240 -82.95134 23905 ft 387 kts 256°
2026-05-03 22:26 23.11574 -82.97943 24248 ft 388 kts 256°
2026-05-03 22:26 23.10900 -83.00790 24581 ft 389 kts 256°
2026-05-03 22:27 23.10221 -83.03651 24908 ft 391 kts 256°
2026-05-03 22:27 23.09549 -83.06483 25210 ft 392 kts 256°
2026-05-03 22:27 23.08865 -83.09365 25524 ft 394 kts 256°
2026-05-03 22:27 23.08177 -83.12257 25807 ft 396 kts 256°
2026-05-03 22:28 23.07492 -83.15130 26085 ft 398 kts 256°
2026-05-03 22:28 23.06795 -83.18055 26379 ft 399 kts 256°
2026-05-03 22:28 23.06097 -83.20980 26652 ft 401 kts 256°
2026-05-03 22:28 23.05400 -83.23904 26937 ft 402 kts 256°
2026-05-03 22:29 23.04698 -83.26843 27202 ft 404 kts 256°
2026-05-03 22:29 23.03992 -83.29799 27486 ft 405 kts 256°
2026-05-03 22:29 23.03288 -83.32736 27744 ft 406 kts 256°
2026-05-03 22:29 23.02577 -83.35707 28053 ft 406 kts 256°
2026-05-03 22:30 23.01857 -83.38703 28328 ft 408 kts 256°
2026-05-03 22:30 23.01163 -83.41680 28591 ft 409 kts 258°
2026-05-03 22:30 23.00915 -83.44720 28790 ft 412 kts 270°
2026-05-03 22:30 23.01363 -83.47826 29025 ft 417 kts 283°
2026-05-03 22:31 23.02478 -83.50739 29295 ft 422 kts 294°
2026-05-03 22:31 23.03964 -83.53489 29703 ft 421 kts 297°
2026-05-03 22:31 23.05538 -83.56126 30103 ft 419 kts 299°
2026-05-03 22:31 23.07051 -83.58803 30508 ft 415 kts 296°
2026-05-03 22:32 23.08501 -83.61539 30896 ft 412 kts 296°
2026-05-03 22:32 23.09910 -83.64235 31248 ft 410 kts 295°
2026-05-03 22:32 23.11299 -83.66892 31613 ft 409 kts 295°
2026-05-03 22:32 23.12705 -83.69581 31989 ft 407 kts 295°
2026-05-03 22:33 23.14109 -83.72263 32327 ft 406 kts 295°
2026-05-03 22:33 23.15497 -83.74905 32676 ft 405 kts 295°
2026-05-03 22:33 23.16902 -83.77575 33053 ft 403 kts 295°
2026-05-03 22:33 23.18294 -83.80228 33433 ft 402 kts 295°
2026-05-03 22:34 23.19603 -83.82878 33779 ft 398 kts 290°
2026-05-03 22:34 23.20405 -83.85721 34110 ft 392 kts 277°
2026-05-03 22:34 23.20574 -83.88680 34475 ft 389 kts 268°
2026-05-03 22:34 23.20452 -83.91609 34847 ft 387 kts 265°
2026-05-03 22:35 23.20277 -83.94496 35174 ft 386 kts 265°
2026-05-03 22:35 23.20092 -83.97429 35507 ft 385 kts 265°
2026-05-03 22:35 23.19910 -84.00330 35812 ft 385 kts 265°
2026-05-03 22:35 23.19728 -84.03224 36091 ft 384 kts 265°
2026-05-03 22:36 23.19550 -84.06123 36364 ft 384 kts 265°
2026-05-03 22:36 23.19374 -84.08999 36573 ft 384 kts 265°
2026-05-03 22:36 23.19194 -84.11908 36744 ft 385 kts 265°
2026-05-03 22:36 23.19016 -84.14834 36913 ft 386 kts 265°
2026-05-03 22:37 23.18840 -84.17724 37093 ft 387 kts 265°
2026-05-03 22:37 23.18668 -84.20656 37240 ft 388 kts 265°
2026-05-03 22:37 23.18500 -84.23563 37378 ft 389 kts 265°
2026-05-03 22:37 23.18306 -84.26504 37523 ft 389 kts 263°
2026-05-03 22:38 23.17799 -84.29403 37674 ft 389 kts 256°
2026-05-03 22:38 23.16946 -84.32175 37830 ft 390 kts 249°
2026-05-03 22:38 23.15773 -84.34825 37976 ft 392 kts 243°
2026-05-03 22:39 23.12602 -84.39686 37985 ft 397 kts 235°
2026-05-03 22:39 23.09162 -84.44371 37986 ft 397 kts 235°
2026-05-03 22:40 23.05712 -84.49049 37987 ft 397 kts 235°
2026-05-03 22:40 23.02266 -84.53719 37986 ft 397 kts 235°
2026-05-03 22:41 22.98795 -84.58420 37985 ft 397 kts 235°
2026-05-03 22:41 22.95335 -84.63097 37984 ft 398 kts 235°
2026-05-03 22:42 22.91880 -84.67784 37983 ft 397 kts 235°
2026-05-03 22:42 22.88429 -84.72455 37980 ft 398 kts 234°
2026-05-03 22:43 22.84942 -84.77134 37988 ft 398 kts 234°
2026-05-03 22:43 22.81504 -84.81755 37977 ft 393 kts 234°
2026-05-03 22:44 22.78080 -84.86359 37976 ft 393 kts 235°
2026-05-03 22:44 22.74644 -84.90981 37979 ft 393 kts 235°
2026-05-03 22:45 22.71214 -84.95594 37978 ft 394 kts 235°
2026-05-03 22:45 22.67787 -85.00201 37981 ft 394 kts 234°
2026-05-03 22:46 22.64334 -85.04836 37975 ft 395 kts 234°
2026-05-03 22:46 22.60892 -85.09452 37975 ft 395 kts 235°
2026-05-03 22:47 22.57440 -85.14077 37972 ft 395 kts 234°
2026-05-03 22:47 22.53976 -85.18711 37980 ft 395 kts 235°
2026-05-03 22:48 22.50520 -85.23337 37974 ft 396 kts 234°
2026-05-03 22:48 22.47042 -85.27985 37983 ft 396 kts 234°
2026-05-03 22:49 22.43588 -85.32597 37983 ft 397 kts 235°
2026-05-03 22:49 22.40087 -85.37270 37985 ft 397 kts 234°
2026-05-03 22:50 22.36637 -85.41869 37981 ft 397 kts 235°
2026-05-03 22:50 22.33152 -85.46519 37818 ft 398 kts 234°
2026-05-03 22:50 22.31417 -85.48828 37620 ft 396 kts 234°
2026-05-03 22:51 22.29684 -85.51133 37458 ft 396 kts 235°
2026-05-03 22:51 22.27929 -85.53469 37302 ft 397 kts 235°
2026-05-03 22:51 22.26208 -85.55756 37021 ft 399 kts 235°
2026-05-03 22:51 22.24452 -85.58102 36668 ft 398 kts 236°
2026-05-03 22:52 22.22730 -85.60522 36342 ft 399 kts 237°
2026-05-03 22:52 22.21044 -85.62917 36039 ft 399 kts 237°
2026-05-03 22:52 22.19372 -85.65292 35568 ft 396 kts 236°
2026-05-03 22:52 22.17681 -85.67707 34744 ft 397 kts 237°
2026-05-03 22:53 22.16010 -85.70099 33764 ft 402 kts 237°
2026-05-03 22:53 22.14308 -85.72534 32838 ft 406 kts 237°
2026-05-03 22:53 22.12606 -85.74969 32130 ft 412 kts 237°
2026-05-03 22:53 22.10848 -85.77484 31401 ft 415 kts 237°
2026-05-03 22:54 22.09094 -85.79989 30736 ft 416 kts 237°
2026-05-03 22:54 22.07362 -85.82458 30014 ft 419 kts 237°
2026-05-03 22:54 22.05987 -85.84417 29402 ft 420 kts 236°
2026-05-03 22:54 22.04212 -85.86945 28649 ft 421 kts 236°
2026-05-03 22:55 22.02421 -85.89491 27876 ft 423 kts 236°
2026-05-03 22:55 22.00647 -85.92009 27248 ft 427 kts 236°
2026-05-03 22:55 21.98821 -85.94588 26690 ft 431 kts 235°
2026-05-03 22:55 21.96866 -85.97096 26134 ft 435 kts 232°
2026-05-03 22:56 21.94781 -85.99452 25557 ft 440 kts 228°
2026-05-03 22:56 21.92509 -86.01718 24970 ft 445 kts 225°
2026-05-03 22:56 21.90173 -86.03934 24385 ft 448 kts 225°
2026-05-03 22:56 21.87822 -86.06145 23792 ft 452 kts 225°
2026-05-03 22:57 21.85448 -86.08364 23202 ft 455 kts 225°
2026-05-03 22:57 21.83036 -86.10620 22604 ft 458 kts 225°
2026-05-03 22:57 21.80609 -86.12897 22055 ft 458 kts 225°
2026-05-03 22:57 21.78246 -86.15113 21579 ft 448 kts 225°
2026-05-03 22:58 21.75945 -86.17273 21138 ft 437 kts 225°
2026-05-03 22:58 21.73654 -86.19424 20693 ft 426 kts 225°
2026-05-03 22:58 21.71469 -86.21480 20412 ft 413 kts 225°
2026-05-03 22:58 21.69337 -86.23486 20224 ft 398 kts 225°
2026-05-03 22:59 21.67281 -86.25415 20085 ft 383 kts 225°
2026-05-03 22:59 21.65315 -86.27261 19969 ft 369 kts 225°
2026-05-03 22:59 21.63401 -86.29054 19814 ft 357 kts 225°
2026-05-03 22:59 21.61560 -86.30782 19467 ft 350 kts 225°
2026-05-03 23:00 21.59741 -86.32494 19098 ft 345 kts 225°
2026-05-03 23:00 21.57939 -86.34187 18742 ft 340 kts 225°
2026-05-03 23:00 21.56185 -86.35832 18392 ft 335 kts 225°
2026-05-03 23:00 21.54422 -86.37485 18042 ft 330 kts 225°
2026-05-03 23:01 21.52663 -86.39027 17702 ft 327 kts 220°
2026-05-03 23:01 21.50802 -86.40424 17368 ft 323 kts 218°
2026-05-03 23:01 21.48952 -86.41750 17038 ft 318 kts 217°
2026-05-03 23:01 21.47119 -86.43060 16683 ft 315 kts 218°
2026-05-03 23:02 21.45295 -86.44363 16288 ft 312 kts 218°
2026-05-03 23:02 21.43493 -86.45654 15870 ft 312 kts 218°
2026-05-03 23:02 21.41704 -86.46935 15430 ft 312 kts 218°
2026-05-03 23:02 21.39902 -86.48224 15011 ft 311 kts 218°
2026-05-03 23:03 21.38102 -86.49512 14600 ft 309 kts 218°
2026-05-03 23:03 21.36315 -86.50790 14200 ft 308 kts 217°
2026-05-03 23:03 21.34524 -86.52068 13789 ft 307 kts 217°
2026-05-03 23:03 21.32733 -86.53346 13374 ft 306 kts 217°
2026-05-03 23:04 21.30969 -86.54605 12965 ft 306 kts 217°
2026-05-03 23:04 21.29313 -86.55993 12538 ft 300 kts 233°
2026-05-03 23:04 21.28427 -86.57971 12122 ft 290 kts 263°
2026-05-03 23:04 21.28254 -86.60078 11762 ft 287 kts 269°
2026-05-03 23:05 21.28120 -86.62205 11319 ft 288 kts 268°
2026-05-03 23:05 21.27956 -86.64333 10917 ft 287 kts 267°
2026-05-03 23:05 21.27768 -86.66479 10539 ft 286 kts 266°
2026-05-03 23:05 21.27571 -86.68579 10152 ft 285 kts 266°
2026-05-03 23:06 21.27366 -86.70673 9768 ft 284 kts 266°
2026-05-03 23:06 21.27153 -86.72794 9380 ft 283 kts 265°
2026-05-03 23:06 21.26940 -86.74874 8995 ft 282 kts 265°
2026-05-03 23:06 21.26723 -86.76965 8611 ft 281 kts 265°
2026-05-03 23:07 21.26509 -86.79032 8291 ft 277 kts 265°
2026-05-03 23:07 21.26294 -86.81083 7997 ft 273 kts 265°
2026-05-03 23:07 21.26087 -86.83063 7717 ft 268 kts 265°
2026-05-03 23:07 21.25878 -86.85043 7432 ft 264 kts 265°
2026-05-03 23:08 21.25676 -86.86978 7132 ft 259 kts 265°
2026-05-03 23:08 21.25475 -86.88887 6626 ft 257 kts 265°
2026-05-03 23:08 21.25275 -86.90781 6142 ft 252 kts 264°
2026-05-03 23:08 21.25082 -86.92626 5706 ft 246 kts 264°
2026-05-03 23:09 21.24889 -86.94430 5284 ft 241 kts 265°
2026-05-03 23:09 21.24701 -86.96210 4983 ft 238 kts 264°
2026-05-03 23:09 21.24517 -86.97945 4759 ft 232 kts 265°
2026-05-03 23:09 21.24339 -86.99630 4547 ft 226 kts 264°
2026-05-03 23:10 21.24345 -87.01277 4387 ft 213 kts 282°
2026-05-03 23:10 21.24939 -87.02698 3980 ft 213 kts 302°
2026-05-03 23:10 21.25771 -87.04026 3549 ft 215 kts 306°
2026-05-03 23:10 21.26613 -87.05318 3273 ft 208 kts 306°
2026-05-03 23:11 21.27434 -87.06589 3022 ft 203 kts 306°
2026-05-03 23:11 21.28092 -87.07919 2967 ft 206 kts 285°
2026-05-03 23:11 21.27987 -87.09422 2967 ft 206 kts 248°
2026-05-03 23:11 21.27094 -87.10590 2870 ft 201 kts 217°
2026-05-03 23:12 21.25820 -87.11180 2448 ft 200 kts 182°
2026-05-03 23:12 21.24489 -87.10864 2086 ft 191 kts 152°
2026-05-03 23:12 21.23348 -87.10229 1978 ft 175 kts 146°
2026-05-03 23:12 21.22399 -87.09429 2003 ft 169 kts 133°
2026-05-03 23:13 21.21598 -87.08566 1955 ft 154 kts 131°
2026-05-03 23:13 21.20866 -87.07764 1951 ft 150 kts 131°
2026-05-03 23:13 21.20110 -87.06953 1963 ft 151 kts 132°
2026-05-03 23:13 21.19350 -87.06156 1959 ft 148 kts 133°
2026-05-03 23:14 21.18627 -87.05410 1962 ft 148 kts 133°
2026-05-03 23:14 21.17880 -87.04645 1963 ft 147 kts 133°
2026-05-03 23:14 21.17126 -87.03879 1966 ft 147 kts 133°
2026-05-03 23:14 21.16379 -87.03121 1964 ft 147 kts 133°
2026-05-03 23:15 21.15638 -87.02371 1969 ft 147 kts 133°
2026-05-03 23:15 21.14881 -87.01600 1966 ft 147 kts 134°
2026-05-03 23:15 21.14136 -87.00848 1971 ft 147 kts 133°
2026-05-03 23:15 21.13386 -87.00091 1967 ft 148 kts 134°
2026-05-03 23:16 21.12631 -86.99330 1969 ft 147 kts 134°
2026-05-03 23:16 21.11954 -86.98505 1973 ft 147 kts 123°
2026-05-03 23:16 21.11375 -86.97591 1971 ft 148 kts 122°
2026-05-03 23:16 21.10805 -86.96669 1967 ft 148 kts 122°
2026-05-03 23:17 21.10237 -86.95754 1972 ft 148 kts 122°
2026-05-03 23:17 21.09666 -86.94836 1789 ft 145 kts 122°
2026-05-03 23:17 21.09105 -86.93935 1421 ft 145 kts 122°
2026-05-03 23:17 21.08546 -86.93039 1161 ft 146 kts 123°
2026-05-03 23:18 21.07985 -86.92136 938 ft 145 kts 122°
2026-05-03 23:18 21.07426 -86.91220 714 ft 145 kts 122°
2026-05-03 23:18 21.06865 -86.90315 562 ft 144 kts 125°
2026-05-03 23:18 21.06275 -86.89419 351 ft 144 kts 125°
2026-05-03 23:19 21.05708 -86.88522 147 ft 143 kts 124°
2026-05-03 23:19 21.05172 -86.87648 29 ft 134 kts 127°
2026-05-03 23:19 21.04792 -86.87054 28 ft 52 kts 129°
2026-05-03 23:19 21.04665 -86.86852 28 ft 42 kts 123°
2026-05-03 23:20 21.04479 -86.86556 28 ft 46 kts 125°
2026-05-03 23:20 21.04248 -86.86360 28 ft 32 kts 153°
2026-05-03 23:20 21.04083 -86.86253 28 ft 18 kts 129°
2026-05-03 23:20 21.03981 -86.86255 35 ft 13 kts 212°
2026-05-03 23:21 21.03863 -86.86338 40 ft 24 kts 212°
2026-05-03 23:21 21.03748 -86.86417 28 ft 20 kts 213°
2026-05-03 23:21 21.03628 -86.86502 28 ft 21 kts 214°
2026-05-03 23:21 21.03568 -86.86611 28 ft 17 kts 294°
2026-05-03 23:22 21.03628 -86.86755 28 ft 0 kts 305°